DECAYED

NOAA 16 DEB, 42392 (Decayed)

Orbit data source: Space-Track

NOAA 16 DEB, 42392 was space debris in SSO originally from a launch on Thu, 21 Sep 2000 UTC launched from the Air Force Western Test Range (AFWTR). Debris objects in space refer to the collection of defunct objects orbiting the Earth. Examples of debris include non-operational satellites, rocket bodies, and fragments generated from explosions, collisions, or faulty payload assembly.

Not visible in the next 10 days
Identifier
42392, 2000-055SL
Orbit
Decayed
Country
Flag of USUS
Related business
Manufacturer
Unknown
Mission
Decayed spacecraft
Bus & Motor
Unknown
Mass
Unknown
Launch date (UTC)
2000-09-21 (26 years ago)
Launch vehicle
Unknown
Launch site
Air Force Western Test Range (AFWTR)
Object type
Payload
Rocket body
Debris
Shape & HBR
Unknown shape, 0.1 m
Radar Cross Section
Medium (>0.1 m² and <1 m²)

Expand to show TLE details & history
Last TLE update: 4 months ago

TLE from 4 months ago
0 NOAA 16 DEB
1 42392U 00055SL  26045.44179696  .01367886  00000-0  18594-1 0  9990
2 42392  98.9262 285.1004 0010968  59.9455 300.2881 15.54648005518520
Epoch: 2026-02-14T10:36Z
TLE epoch observation values (Epoch: 2026-02-14T10:36:11.257Z)
Latitude
0.00004°
Longitude
-18.41131°
Altitude
402.519 km
Speed
7.671 km/s
True Right ascension
19h 00m 24s
True Declination
0° 00' 00"
Sunlit
Object was in daylight at epoch
Visualization orbit readout
Latitude
Unknown
Longitude
Unknown
Altitude
Unknown
Speed
Unknown
Apparent Right ascension
Unknown
Apparent Declination
Unknown
Sunlit
N/A
Visualization observer readout
Local Sidereal Time
03:10:58
Azimuth
Unknown
Elevation
Unknown
Doppler factor
Unknown
Orbital elements
Apogee altitude
407.603 km
Perigee altitude
392.734 km
Semi-major axis
6,778.305 km
Eccentricity
0.0011
Inclination
98.9262°
RAAN
285.1004°
Arg. of periapsis
59.9455°
True anomaly
300.1795°
Mean anomaly
300.2881°
Eccentric anomaly
300.23381°
Mean motion
3.88921 °/min
Orbital period
92.56 mins
BSTAR
0.018594
Loading maneuver chart data...
Computing Atmospheric mass density...
Loading historical data...
Loading historical data...
Loading historical data...
Loading historical data...
Loading historical data...
Loading historical data...
Loading historical data...

Documentation

Showing up to 5 results
|